Location: *
(37.5724°S, 58.0067°E)
Time: 11:15:21
(UTC+00:00)

USA 229 DEB - Pass Details

Date: 30 November 2021
Orbit: 943 x 1269 km, 63.4° (Epoch: 14 January)

Event Time Altitude Azimuth Distance (km) Brightness Sun altitude
Rises 18:04:23 0° 320° (NW) 4,213 6.6 -25.0°
Reaches altitude 10° 18:07:15 10° 317° (NW) 3,237 6.0 -25.3°
Maximum altitude 18:15:03 67° 235° (SW) 1,317 4.2 -26.0°
Drops below altitude 10° 18:22:30 10° 152° (SSE) 3,083 6.5 -26.6°
Sets 18:25:11 0° 149° (SSE) 4,003 7.2 -26.9°
